Location: N�rnberg
(49.4471°N, 11.0632°E)
Time: 19:13:26
(UTC+02:00)

MOZHAYETS 4 - Visible Passes

Search period start: 11 April 2026 00:00
Search period end: 21 April 2026 00:00
Orbit: 642 x 659 km, 98.3° (Epoch: 11 April)

Date Brightness Start Highest point End Pass type
(mag) Time Alt. Az. Time Alt. Az. Time Alt. Az.
11 Apr 10.9 04:43:30 10° E 04:46:15 16° ENE 04:49:01 10° NNE visible
11 Apr 11.5 21:21:14 10° NW 21:22:10 11° NW 21:23:05 10° WNW visible
12 Apr 10.2 05:08:54 10° ESE 05:12:36 26° ENE 05:16:18 10° N visible
13 Apr 9.1 05:34:49 10° SE 05:39:02 43° ENE 05:43:17 10° N visible
13 Apr 10.6 20:35:45 10° N 20:39:16 23° WNW 20:42:46 10° WSW visible
14 Apr 11.2 04:28:00 10° ENE 04:29:40 12° NE 04:31:19 10° NNE visible
14 Apr 11.0 21:03:09 10° NNW 21:05:35 15° WNW 21:08:00 10° W visible
15 Apr 10.7 04:52:48 10° ESE 04:55:56 19° ENE 04:59:05 10° NNE visible
16 Apr 9.9 05:18:24 10° SE 05:22:19 31° ENE 05:26:14 10° N visible
17 Apr 8.7 05:44:27 10° SE 05:48:47 52° ENE 05:53:07 10° N visible
17 Apr 10.8 20:45:44 10° NNW 20:48:57 20° WNW 20:52:09 10° WSW visible
18 Apr 11.1 04:37:01 10° E 04:39:19 14° NE 04:41:37 10° NNE visible
18 Apr 11.3 21:13:23 10° NNW 21:15:14 12° NW 21:17:03 10° W visible
19 Apr 10.5 05:02:10 10° ESE 05:05:37 22° ENE 05:09:04 10° N visible
20 Apr 9.5 05:27:56 10° SE 05:32:01 36° ENE 05:36:07 10° N visible
